Radiation Dose at Monitoring Post of Fukushima Daini Nuclear Power Station
Date,Time,MP-1(microSv/h),MP-2(microSv/h),MP-3(microSv/h),MP-4(microSv/h),MP-5(microSv/h),MP-6(microSv/h),MP-7(microSv/h),Wind Direction,Wind Velocity(m/s),Rain
2019/03/01,00:00,0.208,0.187,0.304,0.284,0.273,0.152,0.093,north-northwest,7.6,No
2019/03/01,00:10,0.208,0.188,0.304,0.284,0.272,0.153,0.093,north-northwest,6.5,No
2019/03/01,00:20,0.208,0.189,0.304,0.283,0.273,0.152,0.092,northwest,6.6,No
2019/03/01,00:30,0.209,0.189,0.305,0.284,0.273,0.153,0.091,northwest,6.5,No
2019/03/01,00:40,0.208,0.190,0.304,0.283,0.272,0.152,0.093,north-northwest,6.2,No
2019/03/01,00:50,0.208,0.188,0.303,0.284,0.272,0.152,0.092,north-northwest,6.3,No
2019/03/01,01:00,0.208,0.188,0.303,0.284,0.271,0.153,0.093,north-northwest,6.5,No
2019/03/01,01:10,0.209,0.188,0.302,0.283,0.272,0.152,0.092,north-northwest,6.9,No
2019/03/01,01:20,0.207,0.189,0.304,0.284,0.271,0.152,0.093,north-northwest,7.9,No
2019/03/01,01:30,0.208,0.188,0.304,0.284,0.273,0.152,0.092,north-northwest,8.4,No
2019/03/01,01:40,0.208,0.188,0.305,0.285,0.273,0.152,0.093,north-northwest,7.3,No
2019/03/01,01:50,0.209,0.188,0.303,0.283,0.273,0.152,0.092,north-northwest,6.6,No
2019/03/01,02:00,0.208,0.189,0.304,0.283,0.272,0.153,0.092,north-northwest,6.7,No
2019/03/01,02:10,0.208,0.186,0.304,0.284,0.272,0.152,0.092,north-northwest,6.7,No
2019/03/01,02:20,0.208,0.189,0.304,0.285,0.275,0.152,0.093,north-northwest,6.1,No
2019/03/01,02:30,0.210,0.188,0.304,0.283,0.272,0.152,0.093,north-northwest,7.3,No
2019/03/01,02:40,0.208,0.189,0.303,0.284,0.272,0.153,0.092,north-northwest,7.7,No
2019/03/01,02:50,0.208,0.187,0.303,0.284,0.272,0.152,0.093,north-northwest,7.4,No
2019/03/01,03:00,0.208,0.190,0.304,0.284,0.270,0.152,0.092,north-northwest,6.5,Yes
2019/03/01,03:10,0.209,0.188,0.303,0.284,0.272,0.153,0.092,north-northwest,6.5,Yes
2019/03/01,03:20,0.209,0.188,0.304,0.284,0.272,0.152,0.093,northwest,5.6,Yes
2019/03/01,03:30,0.209,0.189,0.304,0.285,0.272,0.153,0.093,northwest,5.8,Yes
2019/03/01,03:40,0.209,0.189,0.304,0.285,0.272,0.152,0.093,north-northwest,6.2,No
2019/03/01,03:50,0.208,0.188,0.305,0.285,0.272,0.153,0.093,northwest,5.1,No
2019/03/01,04:00,0.208,0.189,0.304,0.285,0.273,0.153,0.093,northwest,5.1,No
2019/03/01,04:10,0.209,0.188,0.304,0.285,0.272,0.153,0.092,northwest,5.0,No
2019/03/01,04:20,0.208,0.188,0.306,0.285,0.272,0.153,0.092,northwest,4.7,No
2019/03/01,04:30,0.209,0.188,0.303,0.283,0.272,0.153,0.093,northwest,4.2,No
2019/03/01,04:40,0.209,0.189,0.304,0.285,0.272,0.153,0.093,north-northwest,3.2,No
2019/03/01,04:50,0.209,0.189,0.304,0.285,0.273,0.152,0.092,north-northwest,3.3,No
2019/03/01,05:00,0.208,0.189,0.305,0.284,0.273,0.152,0.093,northwest,2.9,No
2019/03/01,05:10,0.208,0.189,0.305,0.284,0.273,0.153,0.093,north-northwest,3.6,No
2019/03/01,05:20,0.208,0.189,0.304,0.285,0.271,0.153,0.092,north-northwest,3.7,No
2019/03/01,05:30,0.208,0.189,0.305,0.284,0.273,0.153,0.093,north-northwest,3.8,No
2019/03/01,05:40,0.208,0.189,0.305,0.285,0.273,0.152,0.093,north-northwest,3.6,No
2019/03/01,05:50,0.208,0.190,0.304,0.284,0.273,0.152,0.093,north-northwest,4.0,No
2019/03/01,06:00,0.208,0.189,0.304,0.285,0.272,0.153,0.092,north-northwest,4.3,No
2019/03/01,06:10,0.208,0.189,0.305,0.284,0.272,0.153,0.094,north-northwest,4.3,No
2019/03/01,06:20,0.209,0.189,0.305,0.284,0.273,0.153,0.093,north-northwest,4.3,No
2019/03/01,06:30,0.208,0.189,0.305,0.286,0.272,0.153,0.093,north-northwest,4.3,No
2019/03/01,06:40,0.208,0.189,0.305,0.285,0.273,0.153,0.093,north-northwest,3.9,No
2019/03/01,06:50,0.209,0.189,0.304,0.286,0.272,0.153,0.093,north-northwest,3.8,No
2019/03/01,07:00,0.208,0.189,0.305,0.285,0.272,0.152,0.093,north-northwest,4.2,No
2019/03/01,07:10,0.208,0.189,0.305,0.286,0.272,0.153,0.093,north-northwest,4.5,No
2019/03/01,07:20,0.210,0.191,0.305,0.286,0.272,0.153,0.094,north-northwest,4.5,No
2019/03/01,07:30,0.209,0.189,0.306,0.285,0.274,0.153,0.093,north-northwest,4.4,No
2019/03/01,07:40,0.209,0.189,0.306,0.284,0.272,0.153,0.093,north-northwest,4.6,No
2019/03/01,07:50,0.208,0.189,0.305,0.284,0.271,0.153,0.093,north-northwest,4.3,No
2019/03/01,08:00,0.210,0.189,0.304,0.284,0.273,0.153,0.093,north,3.8,No
2019/03/01,08:10,0.209,0.188,0.304,0.284,0.273,0.153,0.093,north-northwest,3.3,No
2019/03/01,08:20,0.208,0.188,0.303,0.283,0.272,0.153,0.093,north-northwest,2.6,No
2019/03/01,08:30,0.208,0.189,0.304,0.284,0.273,0.154,0.092,north-northwest,3.2,No
2019/03/01,08:40,0.209,0.189,0.306,0.284,0.273,0.153,0.093,north-northwest,1.6,No
2019/03/01,08:50,0.208,0.189,0.305,0.284,0.271,0.153,0.093,east,2.0,No
2019/03/01,09:00,0.208,0.189,0.304,0.283,0.274,0.154,0.092,north-northeast,1.9,No
2019/03/01,09:10,0.209,0.188,0.304,0.284,0.273,0.153,0.093,north-northeast,2.7,No
2019/03/01,09:20,0.208,0.190,0.306,0.285,0.274,0.154,0.093,north-northeast,3.3,No
2019/03/01,09:30,0.207,0.189,0.303,0.283,0.273,0.153,0.093,north,2.8,No
2019/03/01,09:40,0.208,0.188,0.305,0.283,0.272,0.153,0.093,north,3.3,No
2019/03/01,09:50,0.206,0.188,0.305,0.284,0.275,0.153,0.093,north-northeast,3.5,No
2019/03/01,10:00,0.208,0.188,0.304,0.283,0.272,0.152,0.093,north-northeast,2.8,No
2019/03/01,10:10,0.207,0.188,0.304,0.283,0.273,0.152,0.093,north-northeast,4.8,No
2019/03/01,10:20,0.207,0.187,0.306,0.283,0.273,0.152,0.092,north-northeast,4.9,No
2019/03/01,10:30,0.210,0.188,0.306,0.285,0.272,0.152,0.093,northeast,5.3,No
2019/03/01,10:40,0.208,0.188,0.305,0.283,0.273,0.152,0.092,northeast,5.7,No
2019/03/01,10:50,0.209,0.189,0.306,0.285,0.273,0.154,0.093,northeast,6.0,No
2019/03/01,11:00,0.206,0.189,0.305,0.283,0.274,0.153,0.092,northeast,5.7,No
2019/03/01,11:10,0.208,0.189,0.304,0.284,0.272,0.153,0.093,northeast,5.4,No
2019/03/01,11:20,0.209,0.188,0.305,0.283,0.275,0.153,0.092,northeast,5.3,No
2019/03/01,11:30,0.209,0.189,0.303,0.286,0.273,0.153,0.093,northeast,4.4,No
2019/03/01,11:40,0.211,0.189,0.306,0.283,0.274,0.153,0.093,northeast,5.3,No
2019/03/01,11:50,0.209,0.188,0.304,0.287,0.272,0.153,0.093,north-northeast,4.4,No
2019/03/01,12:00,0.209,0.189,0.305,0.284,0.273,0.153,0.093,northeast,4.0,No
2019/03/01,12:10,0.211,0.189,0.303,0.286,0.273,0.154,0.092,north-northeast,4.5,No
2019/03/01,12:20,0.210,0.189,0.303,0.285,0.274,0.154,0.092,northeast,3.6,No
2019/03/01,12:30,0.209,0.189,0.307,0.287,0.272,0.153,0.093,northeast,3.6,No
2019/03/01,12:40,0.209,0.189,0.304,0.284,0.275,0.154,0.093,northeast,2.7,No
2019/03/01,12:50,0.209,0.189,0.306,0.287,0.271,0.153,0.092,northeast,3.1,No
2019/03/01,13:00,0.209,0.190,0.305,0.283,0.276,0.154,0.093,northeast,2.6,No
2019/03/01,13:10,0.209,0.188,0.305,0.286,0.271,0.152,0.092,northeast,2.6,No
2019/03/01,13:20,0.210,0.189,0.302,0.285,0.275,0.154,0.092,northeast,3.9,No
2019/03/01,13:30,0.209,0.189,0.306,0.284,0.272,0.153,0.093,northeast,2.1,No
2019/03/01,13:40,0.210,0.190,0.303,0.286,0.274,0.154,0.093,east-northeast,1.9,No
2019/03/01,13:50,0.209,0.188,0.307,0.285,0.274,0.154,0.093,east-northeast,2.7,No
2019/03/01,14:00,0.210,0.188,0.303,0.284,0.275,0.154,0.093,east-northeast,3.1,No
2019/03/01,14:10,0.208,0.189,0.305,0.284,0.273,0.154,0.093,east-northeast,2.5,No
2019/03/01,14:20,0.208,0.189,0.304,0.286,0.275,0.154,0.093,east,2.7,No
2019/03/01,14:30,0.212,0.190,0.305,0.286,0.274,0.154,0.093,east-northeast,2.1,No
2019/03/01,14:40,0.212,0.189,0.306,0.285,0.274,0.154,0.093,east,2.9,No
2019/03/01,14:50,0.212,0.189,0.304,0.286,0.273,0.154,0.092,east,3.3,No
2019/03/01,15:00,0.209,0.189,0.306,0.286,0.276,0.154,0.093,east-southeast,2.7,No
2019/03/01,15:10,0.211,0.189,0.306,0.288,0.275,0.154,0.094,east,3.5,No
2019/03/01,15:20,0.209,0.189,0.306,0.286,0.275,0.154,0.093,east,2.9,No
2019/03/01,15:30,0.211,0.190,0.306,0.287,0.273,0.154,0.093,east-southeast,2.9,No
2019/03/01,15:40,0.209,0.190,0.305,0.287,0.275,0.155,0.092,east-southeast,3.7,No
2019/03/01,15:50,0.210,0.189,0.307,0.286,0.275,0.154,0.093,east,4.4,No
2019/03/01,16:00,0.210,0.189,0.306,0.287,0.273,0.153,0.093,east,4.8,No
2019/03/01,16:10,0.206,0.189,0.306,0.285,0.276,0.154,0.094,east,3.6,No
2019/03/01,16:20,0.205,0.190,0.307,0.285,0.275,0.154,0.093,northeast,1.2,No
2019/03/01,16:30,0.208,0.190,0.305,0.287,0.274,0.153,0.092,east,1.1,No
2019/03/01,16:40,0.210,0.190,0.307,0.287,0.276,0.154,0.093,west-northwest,0.6,No
2019/03/01,16:50,0.209,0.190,0.306,0.286,0.274,0.154,0.093,north,3.2,No
2019/03/01,17:00,0.209,0.190,0.305,0.288,0.274,0.154,0.093,west-northwest,4.1,No
2019/03/01,17:10,0.209,0.189,0.306,0.286,0.274,0.155,0.093,west,5.9,No
2019/03/01,17:20,0.211,0.190,0.306,0.285,0.274,0.154,0.093,west-northwest,7.5,No
2019/03/01,17:30,0.210,0.190,0.307,0.288,0.276,0.155,0.093,west,7.3,No
2019/03/01,17:40,0.211,0.189,0.307,0.287,0.276,0.154,0.092,west-northwest,10.6,No
2019/03/01,17:50,0.211,0.190,0.306,0.287,0.274,0.155,0.093,west-northwest,12.6,No
2019/03/01,18:00,0.210,0.190,0.306,0.285,0.275,0.156,0.093,west-northwest,9.5,No
2019/03/01,18:10,0.210,0.189,0.306,0.287,0.275,0.155,0.093,west,9.6,No
2019/03/01,18:20,0.212,0.189,0.306,0.286,0.274,0.154,0.092,west,6.9,No
2019/03/01,18:30,0.211,0.189,0.305,0.285,0.275,0.154,0.093,west,5.7,No
2019/03/01,18:40,0.210,0.190,0.306,0.286,0.274,0.154,0.093,west,7.3,No
2019/03/01,18:50,0.211,0.190,0.307,0.286,0.275,0.154,0.092,west,7.3,No
2019/03/01,19:00,0.212,0.190,0.307,0.286,0.274,0.155,0.093,west,7.7,No
2019/03/01,19:10,0.212,0.190,0.306,0.287,0.275,0.154,0.094,west-northwest,8.1,No
2019/03/01,19:20,0.211,0.189,0.307,0.287,0.274,0.154,0.093,west-northwest,8.1,No
2019/03/01,19:30,0.212,0.189,0.306,0.287,0.274,0.153,0.093,west-northwest,8.1,No
2019/03/01,19:40,0.211,0.190,0.306,0.287,0.273,0.155,0.092,west-northwest,5.9,No
2019/03/01,19:50,0.212,0.190,0.307,0.288,0.273,0.155,0.094,west-northwest,6.0,No
2019/03/01,20:00,0.212,0.189,0.307,0.287,0.274,0.155,0.093,west-northwest,5.8,No
2019/03/01,20:10,0.213,0.190,0.305,0.286,0.275,0.155,0.094,west-northwest,6.9,No
2019/03/01,20:20,0.211,0.190,0.306,0.287,0.275,0.154,0.093,west-northwest,7.0,No
2019/03/01,20:30,0.212,0.190,0.308,0.287,0.273,0.155,0.093,west-northwest,7.0,No
2019/03/01,20:40,0.212,0.191,0.307,0.288,0.274,0.155,0.093,northwest,5.7,No
2019/03/01,20:50,0.213,0.190,0.306,0.286,0.275,0.154,0.093,northwest,4.8,No
2019/03/01,21:00,0.211,0.190,0.307,0.288,0.274,0.154,0.094,northwest,5.1,No
2019/03/01,21:10,0.212,0.190,0.307,0.288,0.274,0.154,0.094,northwest,7.0,No
2019/03/01,21:20,0.211,0.189,0.306,0.288,0.274,0.155,0.093,west-northwest,7.5,No
2019/03/01,21:30,0.212,0.190,0.306,0.288,0.273,0.154,0.093,west-northwest,6.5,No
2019/03/01,21:40,0.213,0.190,0.308,0.288,0.274,0.154,0.093,west-northwest,6.1,No
2019/03/01,21:50,0.212,0.191,0.308,0.287,0.272,0.154,0.094,west-northwest,7.9,No
2019/03/01,22:00,0.214,0.192,0.307,0.288,0.274,0.154,0.093,west-northwest,6.8,No
2019/03/01,22:10,0.212,0.190,0.307,0.286,0.275,0.155,0.094,west-northwest,6.9,No
2019/03/01,22:20,0.211,0.190,0.307,0.287,0.274,0.154,0.091,west-northwest,6.7,No
2019/03/01,22:30,0.213,0.191,0.308,0.287,0.274,0.155,0.093,west-northwest,5.9,No
2019/03/01,22:40,0.212,0.190,0.306,0.287,0.275,0.155,0.093,west-northwest,7.1,No
2019/03/01,22:50,0.213,0.190,0.308,0.287,0.274,0.154,0.092,west,7.0,No
2019/03/01,23:00,0.213,0.190,0.307,0.287,0.274,0.155,0.093,west,6.5,No
2019/03/01,23:10,0.213,0.190,0.309,0.287,0.273,0.154,0.094,west-southwest,6.5,No
2019/03/01,23:20,0.213,0.190,0.306,0.288,0.274,0.155,0.093,west,3.3,No
2019/03/01,23:30,0.212,0.190,0.306,0.287,0.274,0.154,0.093,west-southwest,3.3,No
2019/03/01,23:40,0.212,0.190,0.307,0.287,0.274,0.155,0.094,west-southwest,1.3,No
2019/03/01,23:50,0.212,0.190,0.308,0.288,0.274,0.154,0.092,northwest,0.8,No
